Date String (YYYY-MM-DD hh:mm:ss) UTC,Instrument flags,Ambient pressure (hPa),Sample flow (lpm),Bypass flow (lpm),Sample temperature (°C),Ambient temperature (°C),ASC tube jacket temperature (°C),LED temperature (°C),Box temperature (°C),Sample RH (%),Span deviation,Mass concentration (μg/m³),Mass concentration (μg/m³),Mass concentration (μg/m³)
DateTimeUTC,F1_M11,P_M11,Q1_M11,Q2_M11,T1_M11,T2_M11,T3_M11,T4_M11,T5_M11,U1_M11,ZSPAN_M11,X0_M11,X2_M11,X1_M11
2022-07-14 04:00:00,,0829.5,5.00,0.00,29.4,28.4,00.0,38.1,31.4,23.1,0000.0,0009.91,0005.12,0004.35
2022-07-14 04:01:00,,0829.5,5.00,0.00,29.5,28.5,00.0,38.1,31.4,23.1,0000.0,0009.68,0005.05,0004.35
2022-07-14 04:02:00,,0829.6,5.00,0.00,29.5,28.5,00.0,38.2,31.5,23.0,0000.0,0009.31,0005.05,0004.35
2022-07-14 04:03:00,,0829.6,5.00,0.00,29.5,28.0,00.0,38.1,31.4,23.0,0000.0,0009.35,0005.07,0004.35
2022-07-14 04:04:00,,0829.5,5.00,0.00,29.5,27.5,00.0,38.1,31.4,23.0,0000.0,0009.49,0005.07,0004.35
2022-07-14 04:05:00,,0829.6,5.00,0.00,29.4,27.5,00.0,38.1,31.3,23.1,0000.0,0009.50,0005.02,0004.35
2022-07-14 04:06:00,,0829.5,5.00,0.00,29.4,27.5,00.0,38.1,31.2,23.2,0000.0,0009.80,0004.99,0004.35
2022-07-14 04:07:00,,0829.5,5.00,0.00,29.4,27.6,00.0,38.1,31.2,23.2,0000.0,0010.17,0004.98,0004.34
2022-07-14 04:08:00,,0829.5,5.01,0.00,29.4,27.8,00.0,38.1,31.3,23.1,0000.0,0010.26,0004.96,0004.34
2022-07-14 04:09:00,,0829.6,4.99,0.00,29.4,27.9,00.0,38.1,31.3,23.1,0000.0,0010.26,0004.97,0004.32
2022-07-14 04:10:00,,0829.5,5.01,0.00,29.4,28.1,00.0,38.1,31.3,23.1,0000.0,0009.82,0004.93,0004.31
2022-07-14 04:11:00,,0829.5,5.00,0.00,29.5,28.2,00.0,38.2,31.4,23.1,0000.0,0010.26,0004.90,0004.30
2022-07-14 04:12:00,,0829.5,4.99,0.00,29.5,28.3,00.0,38.2,31.4,23.0,0000.0,0010.62,0004.92,0004.30
2022-07-14 04:13:00,,0829.5,5.01,0.00,29.5,28.4,00.0,38.2,31.5,23.0,0000.0,0010.77,0004.90,0004.29
2022-07-14 04:14:00,,0829.4,5.00,0.00,29.6,28.5,00.0,38.2,31.5,22.9,0000.0,0011.07,0004.85,0004.29
2022-07-14 04:15:00,,0829.5,4.99,0.00,29.6,28.2,00.0,38.2,31.5,22.8,0000.0,0011.03,0004.87,0004.29
2022-07-14 04:16:00,,0829.5,5.01,0.00,29.5,27.4,00.0,38.1,31.4,22.8,0000.0,0010.89,0004.89,0004.29
2022-07-14 04:17:00,,0829.4,5.00,0.00,29.5,26.9,00.0,38.1,31.2,23.0,0000.0,0010.92,0004.90,0004.29
2022-07-14 04:18:00,,0829.5,5.01,0.00,29.4,26.9,00.0,38.1,31.1,23.1,0000.0,0010.85,0004.87,0004.28
2022-07-14 04:19:00,,0829.5,5.00,0.00,29.3,27.0,00.0,38.1,31.1,23.3,0000.0,0011.35,0004.90,0004.29
2022-07-14 04:20:00,,0829.5,5.00,0.00,29.3,27.2,00.0,38.1,31.1,23.3,0000.0,0012.40,0004.89,0004.31
2022-07-14 04:21:00,,0829.5,4.99,0.00,29.3,27.4,00.0,38.1,31.1,23.1,0000.0,0012.26,0004.85,0004.31
2022-07-14 04:22:00,,0829.5,5.01,0.00,29.3,27.6,00.0,38.1,31.1,23.1,0000.0,0012.41,0004.86,0004.30
2022-07-14 04:23:00,,0829.5,5.01,0.00,29.3,27.7,00.0,38.1,31.2,22.9,0000.0,0012.27,0004.86,0004.30
2022-07-14 04:24:00,,0829.5,5.00,0.00,29.3,27.9,00.0,38.1,31.2,22.9,0000.0,0012.14,0004.86,0004.31
2022-07-14 04:25:00,,0829.5,5.00,0.00,29.4,28.0,00.0,38.1,31.3,23.0,0000.0,0012.24,0004.87,0004.31
2022-07-14 04:26:00,,0829.5,5.00,0.00,29.4,28.2,00.0,38.1,31.3,22.9,0000.0,0012.34,0004.92,0004.32
2022-07-14 04:27:00,,0829.6,5.00,0.00,29.4,28.3,00.0,38.1,31.4,22.8,0000.0,0012.37,0004.94,0004.33
2022-07-14 04:28:00,,0829.5,5.00,0.00,29.5,28.4,00.0,38.2,31.4,22.8,0000.0,0011.99,0004.95,0004.34
2022-07-14 04:29:00,,0829.5,5.01,0.00,29.5,28.5,00.0,38.2,31.5,22.7,0000.0,0011.62,0004.97,0004.35
2022-07-14 04:30:00,,0829.6,5.00,0.00,29.5,28.6,00.0,38.2,31.5,22.7,0000.0,0010.98,0004.94,0004.35
2022-07-14 04:31:00,,0829.5,5.00,0.00,29.6,28.2,00.0,38.2,31.5,23.2,0000.0,0009.87,0004.93,0004.35
2022-07-14 04:32:00,,0829.5,5.00,0.00,29.5,27.6,00.0,38.1,31.4,22.9,0000.0,0009.92,0004.98,0004.38
2022-07-14 04:33:00,,0829.5,4.99,0.00,29.5,27.4,00.0,38.1,31.3,22.7,0000.0,0009.28,0005.05,0004.40
2022-07-14 04:34:00,,0829.4,5.00,0.00,29.4,27.5,00.0,38.1,31.3,22.8,0000.0,0009.73,0005.08,0004.42
2022-07-14 04:35:00,,0829.5,5.00,0.00,29.4,27.6,00.0,38.1,31.2,22.9,0000.0,0010.17,0005.12,0004.43
2022-07-14 04:36:00,,0829.5,5.00,0.00,29.4,27.7,00.0,38.2,31.3,22.8,0000.0,0010.09,0005.16,0004.43
2022-07-14 04:37:00,,0829.5,5.00,0.00,29.4,27.9,00.0,38.2,31.3,23.2,0000.0,0010.02,0005.14,0004.43
2022-07-14 04:38:00,,0829.4,4.99,0.00,29.5,28.0,00.0,38.2,31.4,22.9,0000.0,0010.14,0005.14,0004.43
2022-07-14 04:39:00,,0829.3,5.01,0.00,29.5,28.2,00.0,38.2,31.4,22.8,0000.0,0010.21,0005.13,0004.42
2022-07-14 04:40:00,,0829.3,5.00,0.00,29.5,28.3,00.0,38.2,31.4,22.6,0000.0,0010.11,0005.10,0004.42
2022-07-14 04:41:00,,0829.3,4.99,0.00,29.5,28.4,00.0,38.2,31.5,22.4,0000.0,0010.82,0005.15,0004.42
2022-07-14 04:42:00,,0829.4,5.00,0.00,29.6,28.5,00.0,38.3,31.5,22.3,0000.0,0011.16,0005.16,0004.41
2022-07-14 04:43:00,,0829.3,4.99,0.00,29.6,28.3,00.0,38.3,31.5,22.3,0000.0,0011.16,0005.15,0004.39
2022-07-14 04:44:00,,0829.3,5.00,0.00,29.6,27.7,00.0,38.2,31.4,22.2,0000.0,0011.12,0005.11,0004.37
2022-07-14 04:45:00,,0829.3,5.00,0.00,29.5,27.4,00.0,38.2,31.4,22.2,0000.0,0011.29,0005.06,0004.34
2022-07-14 04:46:00,,0829.2,4.99,0.00,29.5,27.5,00.0,38.2,31.3,22.3,0000.0,0011.35,0005.03,0004.33
2022-07-14 04:47:00,,0829.3,5.00,0.00,29.5,27.6,00.0,38.2,31.3,22.4,0000.0,0010.94,0004.97,0004.31
2022-07-14 04:48:00,,0829.2,5.00,0.00,29.4,27.7,00.0,38.2,31.3,22.2,0000.0,0010.92,0004.93,0004.29
2022-07-14 04:49:00,,0829.3,4.99,0.00,29.5,27.8,00.0,38.2,31.3,22.1,0000.0,0010.95,0004.87,0004.26
2022-07-14 04:50:00,,0829.2,5.01,0.00,29.5,28.0,00.0,38.2,31.3,22.0,0000.0,0010.89,0004.81,0004.23
2022-07-14 04:51:00,,0829.2,5.00,0.00,29.5,28.1,00.0,38.2,31.4,22.1,0000.0,0011.05,0004.78,0004.21
2022-07-14 04:52:00,,0829.2,5.00,0.00,29.5,28.2,00.0,38.2,31.4,22.1,0000.0,0010.33,0004.73,0004.19
2022-07-14 04:53:00,,0829.2,5.00,0.00,29.5,28.4,00.0,38.3,31.5,21.9,0000.0,0010.41,0004.67,0004.17
2022-07-14 04:54:00,,0829.2,5.00,0.00,29.6,28.5,00.0,38.3,31.5,21.8,0000.0,0010.35,0004.64,0004.16
2022-07-14 04:55:00,,0829.2,5.00,0.00,29.6,28.4,00.0,38.3,31.5,21.7,0000.0,0010.27,0004.57,0004.14
2022-07-14 04:56:00,,0829.3,4.99,0.00,29.6,27.8,00.0,38.2,31.5,21.7,0000.0,0009.40,0004.58,0004.12
2022-07-14 04:57:00,,0829.2,5.01,0.00,29.6,27.5,00.0,38.2,31.4,21.7,0000.0,0008.78,0004.54,0004.11
2022-07-14 04:58:00,,0829.2,5.00,0.00,29.5,27.4,00.0,38.2,31.3,21.8,0000.0,0008.74,0004.53,0004.09
2022-07-14 04:59:00,,0829.2,5.00,0.00,29.5,27.5,00.0,38.2,31.3,21.9,0000.0,0008.58,0004.49,0004.09
